Location: Newport
(44.6370°N, 124.0520°W)
Time: 14:30:45
(UTC-08:00)

Envisat - Pass Details

Date: 07 October 2017
Orbit: 764 x 766 km, 98.2° (Epoch: 14 December)

Event Time Altitude Azimuth Distance (km) Brightness Sun altitude
Exits shadow 21:38:54 40° 243° (WSW) 1,120 4.0 -31.1°
Maximum altitude 21:39:31 42° 262° (W) 1,090 4.0 -31.2°
Drops below altitude 10° 21:44:20 10° 333° (NNW) 2,314 6.1 -31.9°
Sets 21:46:47 0° 341° (NNW) 3,245 6.8 -32.3°
